NV6B Weather Reports


Display with metric or nautical units.
time (UTC)temp
F
wind
direction
speed
MPH
gust
MPH
rain 1hr
in
rain 24hr
in
rain mn
in
humidity
%
barometer
mb
20260509062644 60 277 2.0 3.0 0.00 0.00 0.00 53 1012.4
20260509061644 60 277 0.0 0.0 0.00 0.00 0.00 51 1012.2
20260509060644 61 277 1.0 3.0 0.00 0.00 0.00 51 1012.2
20260509055644 62 280 2.0 6.0 0.00 0.00 0.00 49 1012.0
20260509025642 72 360 0.0 0.0 0.00 0.00 0.00 37 1009.2
20260509024642 73 360 0.0 0.0 0.00 0.00 0.00 36 1009.1
20260509023702 74 360 0.0 3.0 0.00 0.00 0.00 35 1009.1
20260509022642 74 360 1.0 4.0 0.00 0.00 0.00 34 1009.1
20260509021642 75 360 2.0 3.0 0.00 0.00 0.00 34 1009.0
20260509020642 75 359 3.0 8.0 0.00 0.00 0.00 33 1008.9
20260508230640 79 339 1.0 8.0 0.00 0.00 0.00 29 1009.1
20260508225640 79 31 3.0 9.0 0.00 0.00 0.00 29 1009.2
20260508224640 80 65 5.0 7.0 0.00 0.00 0.00 28 1009.3
20260508223640 78 358 2.0 7.0 0.00 0.00 0.00 32 1009.6
20260508193638 78 296 3.0 6.0 0.00 0.00 0.00 33 1010.7
20260508192638 77 244 5.0 9.0 0.00 0.00 0.00 33 1010.7
20260508191638 77 20 3.0 4.0 0.00 0.00 0.00 33 1010.9
20260508190638 76 359 2.0 7.0 0.00 0.00 0.00 35 1011.0
20260508155636 66 312 4.0 7.0 0.00 0.00 0.00 48 1011.8
20260508154636 65 322 2.0 3.0 0.00 0.00 0.00 47 1011.9
20260508153636 64 16 4.0 4.0 0.00 0.00 0.00 47 1011.8
20260508152635 63 310 4.0 4.0 0.00 0.00 0.00 50 1011.8
20260508151635 62 351 2.0 2.0 0.00 0.00 0.00 52 1011.6
20260508150635 61 280 1.0 3.0 0.00 0.00 0.00 55 1011.7
20260508145635 61 279 0.0 3.0 0.00 0.00 0.00 55 1011.6
20260508144636 61 279 1.0 2.0 0.00 0.00 0.00 56 1011.7
20260508084652 58 278 0.0 0.0 0.00 0.00 0.00 64 1009.0
20260508083631 57 278 0.0 3.0 0.00 0.00 0.00 64 1009.0
20260508082631 56 277 1.0 4.0 0.00 0.00 0.00 65 1009.0
20260508081631 56 334 0.0 0.0 0.00 0.00 0.00 67 1008.9
20260508080631 56 334 0.0 0.0 0.00 0.00 0.00 66 1008.7
20260508075631 56 334 0.0 0.0 0.00 0.00 0.00 65 1008.7
20260508074631 57 334 0.0 0.0 0.00 0.00 0.00 63 1008.6
20260508073631 58 334 0.0 0.0 0.00 0.00 0.00 62 1008.6